Simultaneous Nadir Overpasses (SNOs) Predictions

Prediction of SNOs between AQUA and NOAA-19 Satellite Orbit:

Table of predicted SNOs for the next 14.0 days since TLE Epoch: 10/5/2024
Index Date (AQUA) Time (AQUA) Lat,Lon (AQUA) SZA (AQUA ) Date (NOAA-19) Time (NOAA-19) Lat,Lon (NOAA-19) SZA (NOAA-19 ) Distance(km) Time Diff (sec)
1 10/06/2024 17:40:11 -75.59, 95.12 98.97 10/06/2024 17:38:59 -75.60, 95.05 98.97 2.20 72
2 10/06/2024 18:29:34 75.66, -97.43 81.12 10/06/2024 18:29:51 75.66, -97.46 81.12 0.92 17
3 10/08/2024 21:28:47 75.65,-142.16 81.92 10/08/2024 21:28:33 75.67,-142.06 81.94 3.42 14
4 10/08/2024 22:18:19 -76.25, 23.63 97.49 10/08/2024 22:19:23 -76.28, 27.37 97.40 98.82 64
5 10/11/2024 00:27:56 75.63, 173.17 82.71 10/11/2024 00:27:16 75.61, 173.11 82.68 2.75 40
6 10/11/2024 01:17:17 -75.69, -19.36 97.22 10/11/2024 01:18:17 -75.71, -19.29 97.20 3.15 60
7 10/13/2024 03:27:01 75.59, 128.55 83.47 10/13/2024 03:25:57 75.61, 128.50 83.49 2.72 64
8 10/13/2024 04:16:22 -75.65, -63.97 96.46 10/13/2024 04:16:59 -75.65, -64.11 96.46 3.87 37
9 10/15/2024 06:25:55 75.19, 84.98 83.88 10/15/2024 06:24:49 75.08, 82.19 83.73 80.25 66
10 10/15/2024 07:15:24 -75.65,-108.67 95.68 10/15/2024 07:15:39 -75.66,-108.71 95.67 1.76 15
11 10/17/2024 10:14:22 -75.63,-153.31 94.92 10/17/2024 10:14:19 -75.63,-153.41 94.91 2.68 3



Historial Predications of SNOs between AQUA and NOAA-19
